Regional Weather Roundup
Issued by NWS

Home | Current Version | Previous Version | Text Only | Print | Product List | Glossary Off
Versions: 1 2 3 4 5 6 7 8 9 10 11 12 13 14 15 16 17 18 19 20 21 22 23 24 25 26 27 28 29 30 31 32 33 34 35 36 37 38 39 40 41 42 43 44 45 46 47 48 49 50

138
ASUS43 KIND 220709
RWRIN

WEATHER ROUNDUP FOR INDIANA
NATIONAL WEATHER SERVICE INDIANAPOLIS IN
300 AM EDT FRI MAY 22 2015

NOTE: "FAIR" INDICATES FEW OR NO CLOUDS BELOW 12,000 FEET WITH NO
SIGNIFICANT WEATHER AND/OR OBSTRUCTIONS TO VISIBILITY.

* - STATION DOES NOT REPORT WEATHER SUCH AS PRECIPITATION OR FOG.

+ - STATION NOT QUALITY CONTROLLED BY THE NATIONAL WEATHER SERVICE.
    USE DATA WITH CAUTION...ESPECIALLY DEWPOINT AND RELATIVE
    HUMIDITY OBSERVATIONS.

INZ001>003-010>013-019-020-220800-
NORTHWEST INDIANA

CITY           SKY/WX    TMP DP  RH WIND       PRES   REMARKS
GARY /AIRPORT/ PTCLDY    56  42  57 CALM      30.05S
KNOX *+        CLEAR     50  37  62 SW8       30.05S
LA PORTE +     MOCLDY    55  41  58 W3        30.07R
MICHIGAN CITY+ CLOUDY    55  37  50 CALM      30.06F
MONTICELLO +   CLEAR     50  40  68 SW7       30.08S
RENSSELAER +   CLEAR     52  41  66 SW7       30.08S
VALPARAISO     PTCLDY    51  39  63 SW9       30.05S

$$

LMZ046-743>745-220800-
SOUTHERN LAKE MICHIGAN

STATION/POSITION TIME  TEMP    WIND        PRES    WAVE
                       AIR SEA DIR/SP/G            HT
                 (UTC) (F)     (DEG/KT/KT) (MB)    (FT)
BURNS HARBOR     0700   58     300/  9/ 15 1018.6R
MICHIGAN CITY    0700   57     250/  8/  9   N/A
5NW MICH CITY    0700   53 51   CALM  /  4   N/A     1

$$

INZ004-005-014>016-021>024-220800-
NORTH CENTRAL INDIANA

CITY           SKY/WX    TMP DP  RH WIND       PRES   REMARKS
GOSHEN         MOCLDY    51  38  60 W6        30.05R
LOGANSPORT +   CLEAR     48  36  61 SW8       30.09S
PERU/GRISSOM   CLEAR     51  40  64 W10       30.07S
ROCHESTER +    CLEAR     54  37  54 SW8       30.07S
SOUTH BEND     CLOUDY    54  39  57 NW3       30.07R
WARSAW +       CLEAR     50  37  62 W8        30.06R

$$

INZ006>009-017-018-025>027-220800-
NORTHEAST INDIANA

CITY           SKY/WX    TMP DP  RH WIND       PRES   REMARKS
ANGOLA *+      MOCLDY    54  39  58 W6        30.03S
AUBURN +       CLEAR     52  36  54 SW7       30.04F
FORT WAYNE     CLEAR     47  40  76 SW9       30.07R
HUNTINGTON +   CLEAR     47  39  73 W6        30.06S

$$

INZ028-029-035-036-043>045-051>053-220800-
WEST CENTRAL INDIANA

CITY           SKY/WX    TMP DP  RH WIND       PRES   REMARKS
CRAWFORDSVL +  CLEAR     46  37  71 SW6       30.12S
GREENCASTLE +  CLEAR     45  37  76 CALM      30.13S
LAFAYETTE      CLEAR     46  40  79 W5        30.10S
TERRE HAUTE    CLEAR     49  43  80 SW7       30.14S

$$

INZ030>032-037>040-046>048-054>057-064-065-220800-
CENTRAL INDIANA

CITY           SKY/WX    TMP DP  RH WIND       PRES   REMARKS
CP ATTERBURY + CLEAR     45  41  87 CALM      30.14S
FRANKFORT +    CLEAR     47  40  78 SW8       30.12R
GREENWOOD *+   CLEAR     48  39  71 W5        30.13S
INDIANAPOLIS   CLEAR     46  40  79 SW7       30.10F
-EAGLE CREEK   CLEAR     49  41  74 SW5       30.11S
KOKOMO *+      CLEAR     48  34  57 SW9       30.09S
MARION +       CLEAR     47  39  73 SW9       30.10S
MT COMFORT *+  CLEAR     48  36  61 SW6       30.12S
SHELBYVILLE    CLEAR     48  41  76 SW5       30.12S
ZIONSVILLE +   CLEAR     49  38  66 W6        30.12R

$$

INZ033-034-041-042-049-050-058-059-220800-
EAST CENTRAL INDIANA

CITY           SKY/WX    TMP DP  RH WIND       PRES   REMARKS
MUNCIE         CLEAR     50  40  68 SW7       30.10R

$$

INZ060-061-067>069-081>083-085>088-220800-
SOUTHWEST INDIANA

CITY           SKY/WX    TMP DP  RH WIND       PRES   REMARKS
EVANSVILLE     CLEAR     47  44  90 W6        30.20R
HUNTINGBURG *+ CLEAR     45  39  81 S5        30.18S
WASHINGTON +   CLEAR     47  42  82 W3        30.16S

$$

INZ062-063-066-070>080-084-089>092-220800-
SOUTH CENTRAL AND SOUTHEAST INDIANA

CITY           SKY/WX    TMP DP  RH WIND       PRES   REMARKS
BLOOMINGTON    CLEAR     50  43  77 W7        30.14S
MADISON *+     CLEAR     43  41  93 CALM      30.17S
NORTH VERNON + CLEAR     45  45 100 CALM      30.15S
SEYMOUR +      CLEAR     48  41  76 SW5       30.14F

$$




USA.gov is the U.S. government's official web portal to all federal, state and local government web resources and services.